Dewpoint
34 35 37 42 47 48 51 51 52 53 50 48 45 45 45 46 46 47 49 50 53 54 53 53 53 50 50 48 47 43 40 40
34 37 38 41 45 47 47 46 47 45 41 41 41 41 40 41 40 43 44 44 48 51 50 51 52 50 49 49 46 45 41 42
35 37 39 43 44 44 41 39 39 38 38 40 41 41 40 40 41 43 43 44 44 44 48 48 49 48 50 50 48 44 42 43
33 34 38 40 40 40 37 38 40 42 42 39 40 41 40 38 36 37 39 43 43 44 45 45 47 48 47 49 49 47 42 42
32 34 35 37 39 42 43 42 40 40 41 39 39 36 35 37 38 37 39 42 43 42 43 44 45 46 47 47 47 48 46 42
34 36 39 40 42 43 43 41 41 41 39 39 39 40 39 39 38 39 39 40 42 41 41 42 43 43 44 46 46 46 44 43
35 39 39 39 41 43 43 41 41 42 40 39 40 41 41 39 39 38 37 38 39 39 39 41 40 40 40 40 40 41 40 39
39 38 38 39 40 42 41 41 40 42 42 38 40 42 42 39 38 37 37 36 37 38 39 40 39 40 40 40 41 41 40 40
39 38 39 40 41 41 41 40 40 42 43 39 40 41 39 37 38 38 37 36 37 39 39 39 40 41 41 41 41 41 40 39
37 38 40 41 41 42 43 41 40 42 43 39 41 40 38 38 38 37 36 37 38 39 41 39 39 39 39 38 38 37 38 38
37 38 40 41 41 42 43 42 40 41 42 39 38 38 37 36 35 36 36 38 39 37 35 34 34 34 34 35 35 36 36 36
37 38 39 41 42 41 41 42 40 41 38 38 38 37 34 33 34 35 36 37 34 33 32 33 34 35 34 34 34 32 30 30
38 38 40 41 41 40 41 42 41 38 37 37 37 33 30 32 34 35 37 36 34 33 32 34 35 32 34 31 29 27 25 24
38 39 40 41 39 41 41 41 39 37 37 37 34 33 31 32 37 38 38 37 36 36 37 35 33 30 28 26 25 25 25 26
39 40 39 38 39 40 40 39 37 37 38 37 37 36 36 37 38 38 38 36 35 34 35 36 33 26 23 23 23 25 24 23
40 38 36 36 38 39 38 36 37 39 38 37 37 39 38 37 34 32 33 34 35 35 36 33 26 23 18 25 24 23 23 23
37 37 36 36 38 37 35 35 37 37 34 30 30 30 30 31 32 33 32 29 25 25 24 23 24 21 31 27 28 25 24 23
35 34 35 36 38 35 33 34 35 32 28 28 31 32 28 25 24 23 23 23 23 22 22 23 24 25 26 26 26 22 22 22
33 32 35 38 36 33 32 31 29 27 28 32 32 28 23 23 23 22 21 21 21 20 23 24 21 19 23 24 24 23 24 23
Lifted_Index
3 4 5 3 1 1 2 3 4 4 5 6 6 6 6 6 6 6 7 7 6 6 5 5 5 6 6 6 7 8 8 8
5 5 5 4 2 2 3 4 5 5 5 6 6 6 6 6 6 7 7 7 7 7 6 6 6 6 6 6 7 7 8 8
5 5 5 4 4 4 4 5 5 5 5 6 6 6 6 6 6 7 7 7 7 7 7 7 6 6 6 5 6 6 7 7
5 5 4 4 5 5 5 5 5 5 5 5 6 6 6 6 6 7 7 7 7 8 8 7 7 6 6 5 5 5 5 6
4 4 4 4 5 5 5 5 5 5 5 5 6 6 6 6 7 7 8 8 8 9 8 8 8 7 6 5 5 5 5 5
4 4 4 4 5 5 5 4 4 5 5 5 6 6 6 7 7 8 9 9 9 9 9 9 8 8 7 6 6 6 6 6
4 4 4 5 5 5 4 4 4 5 5 5 6 6 7 8 8 9 9 9 9 9 8 8 8 8 8 7 7 7 7 7
4 4 4 4 4 4 4 4 4 5 5 6 7 7 8 8 9 9 9 9 9 8 8 8 8 8 8 8 9 9 9 9
4 4 4 4 4 5 5 5 5 5 6 6 7 7 8 9 9 9 9 9 8 8 8 8 8 9 9 9 9 10 10 10
4 4 5 5 5 5 5 5 6 6 7 7 7 7 8 9 9 9 8 8 8 8 8 9 9 9 10 9 9 9 9 9
5 5 5 5 5 5 5 6 6 7 7 7 7 7 8 9 9 9 8 8 8 8 9 9 9 9 9 9 8 8 7 7
5 5 6 6 6 6 6 6 6 7 7 7 7 8 8 8 8 8 8 8 8 8 9 9 8 7 7 7 6 6 6 6
5 5 6 6 6 6 6 6 6 6 7 7 7 8 8 8 8 8 8 8 8 8 8 7 6 5 5 5 5 6 6 6
5 5 5 5 5 5 6 6 6 6 7 7 8 8 8 8 8 8 8 8 8 7 6 5 4 4 4 5 5 6 6 7
5 5 5 5 5 5 6 6 7 7 7 7 8 7 7 7 7 7 7 7 6 5 5 4 4 5 5 5 6 7 7 8
5 5 5 5 5 6 6 6 7 7 7 7 7 7 7 7 7 8 7 7 6 6 5 6 6 6 7 7 7 8 9 9
5 5 5 5 6 6 6 6 7 7 7 7 8 8 8 8 8 8 8 7 7 7 8 8 8 8 8 9 9 10 10 11
5 5 6 6 5 5 6 7 7 7 7 8 8 8 9 9 9 9 9 9 9 9 9 9 9 10 10 11 11 11 11 12
5 6 6 5 5 5 6 7 7 7 8 8 8 8 9 9 9 9 9 9 9 10 10 10 10 10 11 11 12 12 12 12